TimeEEST,TemperatureF,Dew PointF,Humidity,Sea Level PressureIn,VisibilityMPH,Wind Direction,Wind SpeedMPH,Gust SpeedMPH,PrecipitationIn,Events,Conditions,WindDirDegrees,DateUTC
12:20 AM,62.6,53.6,72,30.12,6.2,NNE,11.5,-,N/A,,Scattered Clouds,30,2013-05-06 21:20:00
12:50 AM,60.8,53.6,77,30.09,6.2,NE,11.5,-,N/A,,Scattered Clouds,40,2013-05-06 21:50:00
1:20 AM,62.6,53.6,72,30.09,6.2,Variable,10.4,-,N/A,,Scattered Clouds,0,2013-05-06 22:20:00
1:50 AM,62.6,53.6,72,30.09,6.2,NNE,13.8,-,N/A,,Scattered Clouds,20,2013-05-06 22:50:00
2:20 AM,62.6,53.6,72,30.09,6.2,NNE,10.4,-,N/A,,Scattered Clouds,30,2013-05-06 23:20:00
2:50 AM,62.6,55.4,77,30.06,6.2,NNE,11.5,-,N/A,,Scattered Clouds,30,2013-05-06 23:50:00
3:00 AM,62,54,68,30.09,6,NNE,11.5,,,,Partly Cloudy,30,2013-05-07 00:00:00
3:20 AM,62.6,53.6,72,30.06,6.2,NNE,11.5,-,N/A,,Scattered Clouds,30,2013-05-07 00:20:00
3:50 AM,62.6,53.6,72,30.06,6.2,NNE,11.5,-,N/A,,Scattered Clouds,30,2013-05-07 00:50:00
4:20 AM,60.8,53.6,77,30.06,6.2,NNE,11.5,-,N/A,,Scattered Clouds,30,2013-05-07 01:20:00
4:50 AM,60.8,53.6,77,30.06,6.2,NE,11.5,-,N/A,,Scattered Clouds,40,2013-05-07 01:50:00
5:20 AM,60.8,53.6,77,30.06,6.2,NE,11.5,-,N/A,,Mostly Cloudy,40,2013-05-07 02:20:00
5:50 AM,60.8,53.6,77,30.06,6.2,NNE,13.8,-,N/A,,Mostly Cloudy,20,2013-05-07 02:50:00
6:20 AM,60.8,53.6,77,30.06,6.2,NNE,12.7,-,N/A,,Mostly Cloudy,30,2013-05-07 03:20:00
6:50 AM,60.8,53.6,77,30.06,6.2,NE,13.8,-,N/A,,Mostly Cloudy,40,2013-05-07 03:50:00
7:20 AM,60.8,53.6,77,30.06,6.2,NE,13.8,-,N/A,,Mostly Cloudy,50,2013-05-07 04:20:00
7:50 AM,62.6,55.4,77,30.06,6.2,NE,10.4,-,N/A,,Mostly Cloudy,50,2013-05-07 04:50:00
8:20 AM,60.8,53.6,77,30.09,6.2,NE,11.5,-,N/A,,Mostly Cloudy,50,2013-05-07 05:20:00
8:50 AM,60.8,53.6,77,30.09,6.2,NNE,11.5,-,N/A,,Mostly Cloudy,30,2013-05-07 05:50:00
9:00 AM,61,54,73,30.09,6,NNE,11.5,,,,Mostly Cloudy,30,2013-05-07 06:00:00
9:20 AM,62.6,55.4,77,30.09,6.2,NE,11.5,-,N/A,,Mostly Cloudy,40,2013-05-07 06:20:00
9:50 AM,62.6,53.6,72,30.09,6.2,NE,10.4,-,N/A,,Mostly Cloudy,40,2013-05-07 06:50:00
10:20 AM,62.6,55.4,77,30.09,6.2,NE,9.2,-,N/A,,Mostly Cloudy,40,2013-05-07 07:20:00
10:50 AM,62.6,53.6,72,30.06,6.2,NE,11.5,-,N/A,,Scattered Clouds,40,2013-05-07 07:50:00
11:20 AM,64.4,53.6,68,30.06,6.2,NNE,12.7,-,N/A,,Scattered Clouds,20,2013-05-07 08:20:00
11:50 AM,64.4,53.6,68,30.06,6.2,NE,11.5,-,N/A,,Scattered Clouds,40,2013-05-07 08:50:00
12:20 PM,66.2,53.6,64,30.06,6.2,NNE,13.8,-,N/A,,Scattered Clouds,20,2013-05-07 09:20:00
12:50 PM,68.0,55.4,64,30.06,6.2,NNE,8.1,-,N/A,,Scattered Clouds,30,2013-05-07 09:50:00
1:20 PM,68.0,53.6,60,30.04,6.2,North,11.5,-,N/A,,Partly Cloudy,10,2013-05-07 10:20:00
1:50 PM,69.8,55.4,60,30.04,6.2,Variable,11.5,-,N/A,,Partly Cloudy,0,2013-05-07 10:50:00
2:20 PM,69.8,55.4,60,30.04,6.2,NNE,15.0,-,N/A,,Partly Cloudy,30,2013-05-07 11:20:00
2:50 PM,68.0,55.4,64,30.04,6.2,NNE,12.7,-,N/A,,Partly Cloudy,30,2013-05-07 11:50:00
3:00 PM,69,54,49,30.04,6,NNE,12.7,,,,Scattered Clouds,30,2013-05-07 12:00:00
3:20 PM,68.0,55.4,64,30.04,6.2,NNE,17.3,-,N/A,,Partly Cloudy,30,2013-05-07 12:20:00
3:50 PM,68.0,55.4,64,30.01,6.2,NE,18.4,-,N/A,,Partly Cloudy,40,2013-05-07 12:50:00
4:20 PM,66.2,55.4,68,30.01,6.2,NNE,20.7,-,N/A,,Partly Cloudy,30,2013-05-07 13:20:00
4:50 PM,66.2,53.6,64,30.01,6.2,NE,18.4,-,N/A,,Partly Cloudy,40,2013-05-07 13:50:00
5:20 PM,66.2,53.6,64,30.01,6.2,NE,18.4,-,N/A,,Partly Cloudy,50,2013-05-07 14:20:00
5:50 PM,66.2,53.6,64,30.01,6.2,NE,18.4,-,N/A,,Partly Cloudy,40,2013-05-07 14:50:00
6:20 PM,64.4,53.6,68,30.01,6.2,NNE,19.6,-,N/A,,Partly Cloudy,30,2013-05-07 15:20:00
6:50 PM,62.6,53.6,72,30.01,6.2,NNE,19.6,-,N/A,,Partly Cloudy,30,2013-05-07 15:50:00
7:20 PM,62.6,53.6,72,30.01,6.2,NE,16.1,-,N/A,,Scattered Clouds,40,2013-05-07 16:20:00
7:50 PM,62.6,53.6,72,30.01,6.2,NE,15.0,-,N/A,,Scattered Clouds,40,2013-05-07 16:50:00
8:20 PM,62.6,53.6,72,30.01,6.2,NE,15.0,-,N/A,,Scattered Clouds,40,2013-05-07 17:20:00
8:50 PM,62.6,53.6,72,30.01,6.2,NE,16.1,-,N/A,,Scattered Clouds,40,2013-05-07 17:50:00
9:00 PM,62,54,66,30.00,6,NE,16.1,,,,Partly Cloudy,40,2013-05-07 18:00:00
9:20 PM,62.6,53.6,72,30.01,6.2,NE,13.8,-,N/A,,Scattered Clouds,40,2013-05-07 18:20:00
9:50 PM,62.6,53.6,72,30.01,6.2,NE,13.8,-,N/A,,Scattered Clouds,50,2013-05-07 18:50:00
10:20 PM,62.6,55.4,77,30.01,6.2,NE,11.5,-,N/A,,Scattered Clouds,40,2013-05-07 19:20:00
10:50 PM,62.6,55.4,77,30.01,6.2,NE,12.7,-,N/A,,Scattered Clouds,50,2013-05-07 19:50:00
11:20 PM,62.6,55.4,77,29.98,6.2,NE,11.5,-,N/A,,Scattered Clouds,40,2013-05-07 20:20:00
11:50 PM,62.6,53.6,72,29.98,6.2,NE,12.7,-,N/A,,Scattered Clouds,40,2013-05-07 20:50:00